Find Starlink 11207

NORAD ID: 60933 Int'l Des: 2024-155 Owner: SPXS Country: US Constellation: starlink operational
LEOCIRCULAR

Current View

Loading 3D Globe...

About Starlink 11207

Starlink 11207 (NORAD 60933) is a starlink constellation satellite (v2 mini d2c) launched Aug 31, 2024 by SPXS of US. It operates in LEO, CIRCULAR orbit with a mass of 960.00 kg.

About Starlink 11207

Description loading...

Upcoming Passes

Passes for default location (London). Set your location on the main map for personalized predictions.

Altitude History

Loading altitude history...

Two-Line Element Set

1 60933U 24155K 26171.30986461 .00001254 00000-0 15201-4 0 9997
2 60933 53.1590 195.1047 0000605 98.4070 261.7017 15.69707435104525
Epoch: Jun 20, 2026 • Age: 51 hours

Current Status

Altitude 360.3 km
Velocity 7.70 km/s
Sub-Earth Point 24.04°N, 82.87°W
Launch Date Aug 31, 2024
Age 1.8 years
Type internet

Technical Details

Classification Payload
Mass 960.00 kg
Dry Mass 910.00 kg
Total Mass 960.00 kg
Length 0.30 m
Diameter 4.10 m
Span 29.00 m
Shape Box + pan
Manufacturer SPXS
Bus Type Starlink V2MD
Phase Status In Orbit
Owner/State SPXS/US

Most Searched